Time,TemperatureF,DewpointF,PressureIn,WindDirection,WindDirectionDegrees,WindSpeedMPH,WindSpeedGustMPH,Humidity,HourlyPrecipIn,Conditions,Clouds,dailyrainin,SoftwareType,DateUTC
2013-02-24 00:00:00,29.3,23.0,29.88,WSW,245,2.0,2.0,77,0.00,,,0.02,Wunderground v.1.15,2013-02-24 05:00:00,
2013-02-24 00:05:00,29.4,23.4,29.88,SSW,213,1.0,4.0,78,0.00,,,0.02,Wunderground v.1.15,2013-02-24 05:05:00,
2013-02-24 00:10:00,29.3,23.0,29.88,WSW,244,2.0,2.0,77,0.00,,,0.02,Wunderground v.1.15,2013-02-24 05:10:00,
2013-02-24 00:15:00,29.3,23.3,29.88,WSW,242,3.0,3.0,78,0.00,,,0.02,Wunderground v.1.15,2013-02-24 05:15:00,
2013-02-24 00:20:00,29.3,23.3,29.88,SW,232,2.0,2.0,78,0.00,,,0.02,Wunderground v.1.15,2013-02-24 05:20:00,
2013-02-24 00:25:00,29.2,23.2,29.88,WSW,240,2.0,24.0,78,0.00,,,0.02,Wunderground v.1.15,2013-02-24 05:25:00,
2013-02-24 00:35:00,29.2,23.2,29.88,WSW,242,3.0,24.0,78,0.00,,,0.02,Wunderground v.1.15,2013-02-24 05:35:00,
2013-02-24 00:40:00,29.2,23.2,29.88,SW,236,2.0,2.0,78,0.00,,,0.02,Wunderground v.1.15,2013-02-24 05:40:00,
2013-02-24 00:45:00,29.1,23.1,29.87,West,260,2.0,24.0,78,0.00,,,0.02,Wunderground v.1.15,2013-02-24 05:45:00,
2013-02-24 00:50:00,29.1,23.1,29.87,WSW,250,1.0,24.0,78,0.00,,,0.02,Wunderground v.1.15,2013-02-24 05:50:00,
2013-02-24 00:55:00,29.1,23.1,29.88,SSW,207,1.0,24.0,78,0.00,,,0.02,Wunderground v.1.15,2013-02-24 05:55:00,
2013-02-24 01:00:00,29.0,23.0,29.87,WSW,238,2.0,24.0,78,0.00,,,0.02,Wunderground v.1.15,2013-02-24 06:00:00,
2013-02-24 01:05:00,29.0,23.0,29.87,SW,222,2.0,24.0,78,0.00,,,0.02,Wunderground v.1.15,2013-02-24 06:05:00,
2013-02-24 01:15:00,28.8,23.1,29.87,SSE,159,2.0,24.0,79,0.00,,,0.02,Wunderground v.1.15,2013-02-24 06:15:00,
2013-02-24 01:20:00,28.8,23.1,29.86,SW,222,1.0,1.0,79,0.00,,,0.02,Wunderground v.1.15,2013-02-24 06:20:00,
2013-02-24 01:25:00,28.7,23.0,29.86,SW,220,1.0,24.0,79,0.00,,,0.02,Wunderground v.1.15,2013-02-24 06:25:00,
2013-02-24 01:30:00,28.7,23.0,29.86,SSW,209,1.0,24.0,79,0.00,,,0.02,Wunderground v.1.15,2013-02-24 06:30:00,
2013-02-24 01:35:00,28.7,23.0,29.86,SSW,208,2.0,24.0,79,0.00,,,0.00,Wunderground v.1.15,2013-02-24 06:35:00,
2013-02-24 01:45:00,28.7,23.0,29.86,SSW,211,1.0,24.0,79,0.00,,,0.00,Wunderground v.1.15,2013-02-24 06:45:00,
2013-02-24 01:50:00,28.7,23.0,29.86,SSW,211,2.0,24.0,79,0.00,,,0.00,Wunderground v.1.15,2013-02-24 06:50:00,
2013-02-24 01:55:00,28.7,23.0,29.86,SSW,211,1.0,24.0,79,0.00,,,0.00,Wunderground v.1.15,2013-02-24 06:55:00,
2013-02-24 02:00:00,28.7,23.0,29.86,SSW,207,1.0,24.0,79,0.00,,,0.00,Wunderground v.1.15,2013-02-24 07:00:00,
2013-02-24 02:05:00,28.7,23.0,29.86,SSW,206,1.0,24.0,79,0.00,,,0.00,Wunderground v.1.15,2013-02-24 07:05:00,
2013-02-24 02:10:00,28.7,23.0,29.86,SSW,206,1.0,24.0,79,0.00,,,0.00,Wunderground v.1.15,2013-02-24 07:10:00,
2013-02-24 02:15:00,28.7,23.0,29.86,SW,215,2.0,24.0,79,0.00,,,0.00,Wunderground v.1.15,2013-02-24 07:15:00,
2013-02-24 02:25:00,28.7,23.0,29.86,SSW,209,2.0,24.0,79,0.00,,,0.00,Wunderground v.1.15,2013-02-24 07:25:00,
2013-02-24 02:30:00,28.8,23.1,29.86,SSW,205,3.0,3.0,79,0.00,,,0.00,Wunderground v.1.15,2013-02-24 07:30:00,
2013-02-24 02:35:00,28.8,23.1,29.86,SW,218,3.0,24.0,79,0.00,,,0.00,Wunderground v.1.15,2013-02-24 07:35:00,
2013-02-24 02:40:00,28.7,23.0,29.86,SW,218,2.0,24.0,79,0.00,,,0.00,Wunderground v.1.15,2013-02-24 07:40:00,
2013-02-24 02:45:00,28.7,22.7,29.86,SW,223,2.0,24.0,78,0.00,,,0.00,Wunderground v.1.15,2013-02-24 07:45:00,
2013-02-24 02:50:00,28.7,23.0,29.86,SSW,206,3.0,24.0,79,0.00,,,0.00,Wunderground v.1.15,2013-02-24 07:50:00,
2013-02-24 02:55:00,28.7,23.0,29.86,SSW,205,4.0,24.0,79,0.00,,,0.00,Wunderground v.1.15,2013-02-24 07:55:00,
2013-02-24 03:05:00,28.8,23.1,29.86,SSW,213,4.0,24.0,79,0.00,,,0.00,Wunderground v.1.15,2013-02-24 08:05:00,
2013-02-24 03:10:00,28.8,23.1,29.86,SW,234,3.0,24.0,79,0.00,,,0.00,Wunderground v.1.15,2013-02-24 08:10:00,
2013-02-24 03:15:00,28.8,23.1,29.86,SW,232,3.0,24.0,79,0.00,,,0.00,Wunderground v.1.15,2013-02-24 08:15:00,
2013-02-24 03:20:00,28.8,23.1,29.86,SW,215,3.0,3.0,79,0.00,,,0.00,Wunderground v.1.15,2013-02-24 08:20:00,
2013-02-24 03:25:00,28.8,23.1,29.86,SW,231,2.0,5.0,79,0.00,,,0.00,Wunderground v.1.15,2013-02-24 08:25:00,
2013-02-24 03:30:00,28.8,23.1,29.86,WSW,250,2.0,2.0,79,0.00,,,0.00,Wunderground v.1.15,2013-02-24 08:30:00,
2013-02-24 03:40:00,28.7,23.0,29.87,SW,230,3.0,24.0,79,0.00,,,0.00,Wunderground v.1.15,2013-02-24 08:40:00,
2013-02-24 03:45:00,28.7,23.0,29.87,WSW,245,3.0,24.0,79,0.00,,,0.00,Wunderground v.1.15,2013-02-24 08:45:00,
2013-02-24 03:50:00,28.7,23.0,29.87,WSW,248,3.0,3.0,79,0.00,,,0.00,Wunderground v.1.15,2013-02-24 08:50:00,
2013-02-24 03:55:00,28.7,23.0,29.87,SW,232,3.0,5.0,79,0.00,,,0.00,Wunderground v.1.15,2013-02-24 08:55:00,
2013-02-24 04:00:00,28.7,23.0,29.87,WSW,238,4.0,4.0,79,0.00,,,0.00,Wunderground v.1.15,2013-02-24 09:00:00,
2013-02-24 04:05:00,28.7,23.3,29.86,SW,232,3.0,24.0,80,0.00,,,0.00,Wunderground v.1.15,2013-02-24 09:05:00,
2013-02-24 04:15:00,28.7,23.3,29.86,West,273,3.0,24.0,80,0.00,,,0.00,Wunderground v.1.15,2013-02-24 09:15:00,
2013-02-24 04:20:00,28.6,23.2,29.86,West,261,3.0,3.0,80,0.00,,,0.00,Wunderground v.1.15,2013-02-24 09:20:00,
2013-02-24 04:25:00,28.6,23.2,29.86,WSW,258,3.0,24.0,80,0.00,,,0.00,Wunderground v.1.15,2013-02-24 09:25:00,
2013-02-24 04:30:00,28.4,23.0,29.86,WSW,240,3.0,24.0,80,0.00,,,0.00,Wunderground v.1.15,2013-02-24 09:30:00,
2013-02-24 04:35:00,28.4,23.0,29.86,West,276,5.0,24.0,80,0.00,,,0.00,Wunderground v.1.15,2013-02-24 09:35:00,
2013-02-24 04:40:00,28.4,23.3,29.86,West,271,5.0,5.0,81,0.00,,,0.00,Wunderground v.1.15,2013-02-24 09:40:00,
2013-02-24 04:45:00,28.4,23.3,29.86,WSW,257,4.0,24.0,81,0.00,,,0.00,Wunderground v.1.15,2013-02-24 09:45:00,
2013-02-24 04:55:00,28.4,23.3,29.86,West,261,5.0,24.0,81,0.00,,,0.00,Wunderground v.1.15,2013-02-24 09:55:00,
2013-02-24 05:00:00,28.4,23.3,29.86,WSW,244,5.0,24.0,81,0.00,,,0.00,Wunderground v.1.15,2013-02-24 10:00:00,
2013-02-24 05:05:00,28.4,23.3,29.87,WSW,251,5.0,24.0,81,0.00,,,0.00,Wunderground v.1.15,2013-02-24 10:05:00,
2013-02-24 05:10:00,28.4,23.3,29.86,SW,229,5.0,24.0,81,0.00,,,0.00,Wunderground v.1.15,2013-02-24 10:10:00,
2013-02-24 05:15:00,28.3,23.5,29.87,WSW,244,6.0,24.0,82,0.00,,,0.00,Wunderground v.1.15,2013-02-24 10:15:00,
2013-02-24 05:20:00,28.3,23.5,29.87,SW,234,7.0,7.0,82,0.00,,,0.00,Wunderground v.1.15,2013-02-24 10:20:00,
2013-02-24 05:30:00,28.3,23.2,29.87,WSW,237,5.0,5.0,81,0.00,,,0.00,Wunderground v.1.15,2013-02-24 10:30:00,
2013-02-24 05:35:00,28.3,23.2,29.87,WSW,240,6.0,6.0,81,0.00,,,0.00,Wunderground v.1.15,2013-02-24 10:35:00,
2013-02-24 05:40:00,28.3,23.5,29.87,WSW,254,6.0,6.0,82,0.00,,,0.00,Wunderground v.1.15,2013-02-24 10:40:00,
2013-02-24 05:45:00,28.2,23.1,29.87,WNW,293,5.0,24.0,81,0.00,,,0.00,Wunderground v.1.15,2013-02-24 10:45:00,
2013-02-24 05:50:00,28.2,23.4,29.87,WSW,240,5.0,5.0,82,0.00,,,0.00,Wunderground v.1.15,2013-02-24 10:50:00,
2013-02-24 05:55:00,28.2,23.1,29.87,SW,235,5.0,24.0,81,0.00,,,0.00,Wunderground v.1.15,2013-02-24 10:55:00,
2013-02-24 06:00:00,28.3,23.2,29.88,WSW,253,5.0,24.0,81,0.00,,,0.00,Wunderground v.1.15,2013-02-24 11:00:00,
2013-02-24 06:10:00,28.1,23.0,29.88,West,269,7.0,24.0,81,0.00,,,0.00,Wunderground v.1.15,2013-02-24 11:10:00,
2013-02-24 06:15:00,28.1,22.7,29.88,WSW,254,7.0,24.0,80,0.00,,,0.00,Wunderground v.1.15,2013-02-24 11:15:00,
2013-02-24 06:20:00,28.1,22.4,29.88,West,261,8.0,24.0,79,0.00,,,0.00,Wunderground v.1.15,2013-02-24 11:20:00,
2013-02-24 06:25:00,28.0,22.3,29.88,WSW,257,8.0,24.0,79,0.00,,,0.00,Wunderground v.1.15,2013-02-24 11:25:00,
2013-02-24 06:30:00,28.0,22.3,29.88,West,266,8.0,8.0,79,0.00,,,0.00,Wunderground v.1.15,2013-02-24 11:30:00,
2013-02-24 06:35:00,28.0,22.3,29.88,West,265,7.0,24.0,79,0.00,,,0.00,Wunderground v.1.15,2013-02-24 11:35:00,
2013-02-24 06:45:00,27.9,22.2,29.88,West,274,7.0,9.0,79,0.00,,,0.00,Wunderground v.1.15,2013-02-24 11:45:00,
2013-02-24 06:50:00,27.9,22.2,29.88,West,265,4.0,24.0,79,0.00,,,0.00,Wunderground v.1.15,2013-02-24 11:50:00,
2013-02-24 06:55:00,27.9,22.2,29.88,WSW,257,3.0,24.0,79,0.00,,,0.00,Wunderground v.1.15,2013-02-24 11:55:00,
2013-02-24 07:00:00,27.9,22.2,29.88,WSW,241,5.0,24.0,79,0.00,,,0.00,Wunderground v.1.15,2013-02-24 12:00:00,
2013-02-24 07:05:00,27.9,22.2,29.88,West,259,5.0,24.0,79,0.00,,,0.00,Wunderground v.1.15,2013-02-24 12:05:00,
2013-02-24 07:10:00,27.9,22.2,29.88,WSW,258,5.0,24.0,79,0.00,,,0.00,Wunderground v.1.15,2013-02-24 12:10:00,
2013-02-24 07:15:00,27.8,21.8,29.88,West,259,6.0,24.0,78,0.00,,,0.00,Wunderground v.1.15,2013-02-24 12:15:00,
2013-02-24 07:25:00,27.9,22.5,29.88,SW,234,6.0,24.0,80,0.00,,,0.00,Wunderground v.1.15,2013-02-24 12:25:00,
2013-02-24 07:30:00,27.9,22.2,29.88,West,264,5.0,5.0,79,0.00,,,0.00,Wunderground v.1.15,2013-02-24 12:30:00,
2013-02-24 07:35:00,27.9,22.2,29.88,West,261,5.0,24.0,79,0.00,,,0.00,Wunderground v.1.15,2013-02-24 12:35:00,
2013-02-24 07:40:00,28.0,22.3,29.88,SW,218,5.0,24.0,79,0.00,,,0.00,Wunderground v.1.15,2013-02-24 12:40:00,
2013-02-24 07:45:00,28.1,22.4,29.88,WSW,242,6.0,24.0,79,0.00,,,0.00,Wunderground v.1.15,2013-02-24 12:45:00,
2013-02-24 07:50:00,28.1,22.4,29.88,West,274,5.0,5.0,79,0.00,,,0.00,Wunderground v.1.15,2013-02-24 12:50:00,
2013-02-24 07:55:00,28.0,22.0,29.88,West,270,4.0,7.0,78,0.00,,,0.00,Wunderground v.1.15,2013-02-24 12:55:00,
2013-02-24 08:00:00,28.0,22.3,29.88,WSW,245,4.0,24.0,79,0.00,,,0.00,Wunderground v.1.15,2013-02-24 13:00:00,
2013-02-24 08:10:00,28.1,22.7,29.88,WNW,291,5.0,5.0,80,0.00,,,0.00,Wunderground v.1.15,2013-02-24 13:10:00,
2013-02-24 08:15:00,28.0,22.6,29.88,West,265,5.0,24.0,80,0.00,,,0.00,Wunderground v.1.15,2013-02-24 13:15:00,
2013-02-24 08:20:00,28.0,22.6,29.88,West,264,6.0,6.0,80,0.00,,,0.00,Wunderground v.1.15,2013-02-24 13:20:00,
2013-02-24 08:25:00,28.1,23.0,29.88,West,269,4.0,24.0,81,0.00,,,0.00,Wunderground v.1.15,2013-02-24 13:25:00,
2013-02-24 08:30:00,28.1,23.0,29.88,WSW,257,4.0,24.0,81,0.00,,,0.00,Wunderground v.1.15,2013-02-24 13:30:00,
2013-02-24 08:35:00,28.0,23.2,29.88,West,271,5.0,24.0,82,0.00,,,0.00,Wunderground v.1.15,2013-02-24 13:35:00,
2013-02-24 08:40:00,28.0,23.2,29.88,WSW,254,5.0,24.0,82,0.00,,,0.00,Wunderground v.1.15,2013-02-24 13:40:00,
2013-02-24 08:50:00,28.0,23.2,29.88,West,269,4.0,4.0,82,0.00,,,0.00,Wunderground v.1.15,2013-02-24 13:50:00,
2013-02-24 08:55:00,28.1,23.6,29.88,West,267,4.0,24.0,83,0.00,,,0.00,Wunderground v.1.15,2013-02-24 13:55:00,
2013-02-24 09:00:00,28.1,23.6,29.88,SW,218,4.0,4.0,83,0.00,,,0.00,Wunderground v.1.15,2013-02-24 14:00:00,
2013-02-24 09:10:00,28.2,24.0,29.89,SW,234,3.0,24.0,84,0.00,,,0.00,Wunderground v.1.15,2013-02-24 14:10:00,
2013-02-24 09:15:00,28.2,24.0,29.89,WNW,289,4.0,24.0,84,0.00,,,0.00,Wunderground v.1.15,2013-02-24 14:15:00,
2013-02-24 09:25:00,28.1,24.5,29.89,WSW,240,5.0,24.0,86,0.00,,,0.00,Wunderground v.1.15,2013-02-24 14:25:00,
2013-02-24 09:30:00,28.1,24.7,29.89,WSW,254,4.0,24.0,87,0.00,,,0.00,Wunderground v.1.15,2013-02-24 14:30:00,
2013-02-24 09:35:00,28.2,24.8,29.89,WSW,244,3.0,24.0,87,0.00,,,0.00,Wunderground v.1.15,2013-02-24 14:35:00,
2013-02-24 09:40:00,28.2,24.8,29.89,West,269,4.0,24.0,87,0.00,,,0.00,Wunderground v.1.15,2013-02-24 14:40:00,
2013-02-24 09:45:00,28.2,24.6,29.89,WSW,248,5.0,24.0,86,0.00,,,0.00,Wunderground v.1.15,2013-02-24 14:45:00,
2013-02-24 09:50:00,27.9,24.3,29.89,West,266,7.0,24.0,86,0.00,,,0.00,Wunderground v.1.15,2013-02-24 14:50:00,
2013-02-24 10:00:00,28.0,23.8,29.89,WNW,283,9.0,24.0,84,0.00,,,0.00,Wunderground v.1.15,2013-02-24 15:00:00,
2013-02-24 10:05:00,28.2,23.7,29.89,West,277,10.0,24.0,83,0.00,,,0.00,Wunderground v.1.15,2013-02-24 15:05:00,
2013-02-24 10:10:00,28.4,23.6,29.89,WSW,241,10.0,24.0,82,0.00,,,0.00,Wunderground v.1.15,2013-02-24 15:10:00,
2013-02-24 10:15:00,28.4,23.3,29.90,West,281,11.0,24.0,81,0.00,,,0.00,Wunderground v.1.15,2013-02-24 15:15:00,
2013-02-24 10:20:00,28.3,23.5,29.90,West,277,13.0,13.0,82,0.00,,,0.00,Wunderground v.1.15,2013-02-24 15:20:00,
2013-02-24 10:25:00,28.5,23.4,29.90,West,277,12.0,24.0,81,0.00,,,0.00,Wunderground v.1.15,2013-02-24 15:25:00,
2013-02-24 10:35:00,28.3,23.2,29.90,West,269,10.0,24.0,81,0.00,,,0.00,Wunderground v.1.15,2013-02-24 15:35:00,
2013-02-24 10:40:00,28.4,23.3,29.90,WSW,243,10.0,24.0,81,0.00,,,0.00,Wunderground v.1.15,2013-02-24 15:40:00,
2013-02-24 10:45:00,28.2,23.4,29.90,WSW,250,11.0,24.0,82,0.00,,,0.00,Wunderground v.1.15,2013-02-24 15:45:00,
2013-02-24 10:50:00,28.3,23.5,29.90,West,273,12.0,12.0,82,0.00,,,0.00,Wunderground v.1.15,2013-02-24 15:50:00,
2013-02-24 10:55:00,28.6,23.5,29.90,West,280,11.0,14.0,81,0.00,,,0.00,Wunderground v.1.15,2013-02-24 15:55:00,
2013-02-24 11:05:00,28.8,23.1,29.90,West,267,13.0,24.0,79,0.00,,,0.00,Wunderground v.1.15,2013-02-24 16:05:00,
2013-02-24 11:10:00,28.7,23.0,29.90,WSW,244,12.0,24.0,79,0.00,,,0.00,Wunderground v.1.15,2013-02-24 16:10:00,
2013-02-24 11:15:00,28.5,22.5,29.90,WSW,257,13.0,24.0,78,0.00,,,0.00,Wunderground v.1.15,2013-02-24 16:15:00,
2013-02-24 11:20:00,28.5,22.8,29.90,West,267,13.0,24.0,79,0.00,,,0.00,Wunderground v.1.15,2013-02-24 16:20:00,
2013-02-24 11:25:00,28.4,22.7,29.90,West,270,12.0,24.0,79,0.00,,,0.00,Wunderground v.1.15,2013-02-24 16:25:00,
2013-02-24 11:30:00,28.5,22.8,29.91,West,273,12.0,24.0,79,0.00,,,0.00,Wunderground v.1.15,2013-02-24 16:30:00,
2013-02-24 11:35:00,28.7,23.0,29.91,West,269,12.0,24.0,79,0.00,,,0.00,Wunderground v.1.15,2013-02-24 16:35:00,
2013-02-24 11:45:00,28.7,23.6,29.91,West,267,11.0,24.0,81,0.00,,,0.00,Wunderground v.1.15,2013-02-24 16:45:00,
2013-02-24 11:50:00,28.4,23.9,29.91,West,269,10.0,10.0,83,0.00,,,0.00,Wunderground v.1.15,2013-02-24 16:50:00,
2013-02-24 11:55:00,28.2,24.0,29.91,West,263,10.0,24.0,84,0.00,,,0.00,Wunderground v.1.15,2013-02-24 16:55:00,
2013-02-24 12:00:00,28.6,23.8,29.91,WSW,247,9.0,9.0,82,0.00,,,0.00,Wunderground v.1.15,2013-02-24 17:00:00,
2013-02-24 12:05:00,28.9,23.2,29.91,West,260,9.0,12.0,79,0.00,,,0.00,Wunderground v.1.15,2013-02-24 17:05:00,
2013-02-24 12:10:00,28.8,23.1,29.91,West,260,11.0,24.0,79,0.00,,,0.00,Wunderground v.1.15,2013-02-24 17:10:00,
2013-02-24 12:20:00,28.6,22.9,29.91,WSW,244,12.0,24.0,79,0.00,,,0.00,Wunderground v.1.15,2013-02-24 17:20:00,
2013-02-24 12:25:00,28.5,22.8,29.91,WSW,255,14.0,24.0,79,0.00,,,0.00,Wunderground v.1.15,2013-02-24 17:25:00,
2013-02-24 12:30:00,29.0,23.6,29.91,West,277,13.0,24.0,80,0.00,,,0.00,Wunderground v.1.15,2013-02-24 17:30:00,
2013-02-24 12:35:00,28.9,23.2,29.91,West,269,11.0,24.0,79,0.00,,,0.00,Wunderground v.1.15,2013-02-24 17:35:00,
2013-02-24 12:40:00,28.9,23.5,29.91,West,260,11.0,24.0,80,0.00,,,0.00,Wunderground v.1.15,2013-02-24 17:40:00,
2013-02-24 12:45:00,28.2,23.7,29.91,West,265,12.0,24.0,83,0.00,,,0.00,Wunderground v.1.15,2013-02-24 17:45:00,
2013-02-24 12:55:00,28.3,24.4,29.92,West,272,12.0,24.0,85,0.00,,,0.00,Wunderground v.1.15,2013-02-24 17:55:00,
2013-02-24 13:00:00,28.5,24.3,29.92,WSW,258,11.0,24.0,84,0.00,,,0.00,Wunderground v.1.15,2013-02-24 18:00:00,
2013-02-24 13:05:00,28.6,23.8,29.92,West,275,12.0,24.0,82,0.00,,,0.00,Wunderground v.1.15,2013-02-24 18:05:00,
2013-02-24 13:10:00,28.8,24.3,29.92,West,269,12.0,24.0,83,0.00,,,0.00,Wunderground v.1.15,2013-02-24 18:10:00,
2013-02-24 13:15:00,28.7,23.9,29.92,West,277,12.0,24.0,82,0.00,,,0.00,Wunderground v.1.15,2013-02-24 18:15:00,
2013-02-24 13:20:00,29.0,23.6,29.92,West,261,13.0,13.0,80,0.00,,,0.00,Wunderground v.1.15,2013-02-24 18:20:00,
2013-02-24 13:30:00,29.2,23.5,29.91,West,281,13.0,13.0,79,0.00,,,0.00,Wunderground v.1.15,2013-02-24 18:30:00,
2013-02-24 13:35:00,29.1,23.7,29.92,West,259,12.0,14.0,80,0.00,,,0.00,Wunderground v.1.15,2013-02-24 18:35:00,
2013-02-24 13:40:00,29.0,23.3,29.92,West,265,13.0,24.0,79,0.00,,,0.00,Wunderground v.1.15,2013-02-24 18:40:00,
2013-02-24 13:45:00,29.5,24.4,29.92,West,267,13.0,24.0,81,0.00,,,0.00,Wunderground v.1.15,2013-02-24 18:45:00,
2013-02-24 13:50:00,29.2,24.1,29.92,WSW,246,12.0,24.0,81,0.00,,,0.00,Wunderground v.1.15,2013-02-24 18:50:00,
2013-02-24 13:55:00,28.9,23.8,29.92,West,268,12.0,24.0,81,0.00,,,0.00,Wunderground v.1.15,2013-02-24 18:55:00,
2013-02-24 14:05:00,28.2,24.3,29.92,West,279,13.0,24.0,85,0.00,,,0.00,Wunderground v.1.15,2013-02-24 19:05:00,
2013-02-24 14:10:00,28.9,24.4,29.92,WSW,251,11.0,24.0,83,0.00,,,0.00,Wunderground v.1.15,2013-02-24 19:10:00,
2013-02-24 14:15:00,28.7,24.2,29.92,West,262,12.0,24.0,83,0.00,,,0.00,Wunderground v.1.15,2013-02-24 19:15:00,
2013-02-24 14:20:00,28.7,24.5,29.92,West,265,13.0,24.0,84,0.00,,,0.00,Wunderground v.1.15,2013-02-24 19:20:00,
2013-02-24 14:25:00,29.0,25.1,29.92,West,278,12.0,24.0,85,0.00,,,0.00,Wunderground v.1.15,2013-02-24 19:25:00,
2013-02-24 14:30:00,29.0,24.8,29.93,West,265,12.0,12.0,84,0.00,,,0.00,Wunderground v.1.15,2013-02-24 19:30:00,
2013-02-24 14:35:00,29.0,24.8,29.93,West,265,13.0,14.0,84,0.00,,,0.00,Wunderground v.1.15,2013-02-24 19:35:00,
2013-02-24 14:45:00,28.9,24.4,29.93,WNW,298,14.0,24.0,83,0.00,,,0.00,Wunderground v.1.15,2013-02-24 19:45:00,
2013-02-24 14:50:00,29.4,24.9,29.93,WNW,284,12.0,12.0,83,0.00,,,0.00,Wunderground v.1.15,2013-02-24 19:50:00,
2013-02-24 14:55:00,28.9,24.1,29.93,WNW,283,12.0,24.0,82,0.00,,,0.00,Wunderground v.1.15,2013-02-24 19:55:00,
2013-02-24 15:00:00,28.9,24.1,29.94,West,267,13.0,13.0,82,0.00,,,0.00,Wunderground v.1.15,2013-02-24 20:00:00,
2013-02-24 15:05:00,29.1,24.3,29.94,West,270,13.0,24.0,82,0.00,,,0.00,Wunderground v.1.15,2013-02-24 20:05:00,
2013-02-24 15:10:00,29.2,24.1,29.94,West,271,13.0,13.0,81,0.00,,,0.00,Wunderground v.1.15,2013-02-24 20:10:00,
2013-02-24 15:15:00,29.4,24.0,29.94,WSW,245,12.0,24.0,80,0.00,,,0.00,Wunderground v.1.15,2013-02-24 20:15:00,
2013-02-24 15:25:00,29.3,24.5,29.95,WSW,252,10.0,24.0,82,0.00,,,0.00,Wunderground v.1.15,2013-02-24 20:25:00,
2013-02-24 15:30:00,29.3,24.2,29.95,WSW,253,9.0,24.0,81,0.00,,,0.00,Wunderground v.1.15,2013-02-24 20:30:00,
2013-02-24 15:35:00,29.1,24.3,29.95,West,278,11.0,24.0,82,0.00,,,0.00,Wunderground v.1.15,2013-02-24 20:35:00,
2013-02-24 15:40:00,28.9,24.4,29.95,WSW,252,13.0,13.0,83,0.00,,,0.00,Wunderground v.1.15,2013-02-24 20:40:00,
2013-02-24 15:45:00,28.8,24.3,29.96,WSW,243,13.0,24.0,83,0.00,,,0.00,Wunderground v.1.15,2013-02-24 20:45:00,
2013-02-24 15:50:00,28.7,24.2,29.96,WSW,244,13.0,13.0,83,0.00,,,0.00,Wunderground v.1.15,2013-02-24 20:50:00,
2013-02-24 16:00:00,28.5,24.3,29.96,SW,232,11.0,11.0,84,0.00,,,0.00,Wunderground v.1.15,2013-02-24 21:00:00,
2013-02-24 16:05:00,28.4,24.2,29.96,WSW,240,10.0,24.0,84,0.00,,,0.00,Wunderground v.1.15,2013-02-24 21:05:00,
2013-02-24 16:10:00,28.4,24.2,29.96,WSW,250,10.0,10.0,84,0.00,,,0.00,Wunderground v.1.15,2013-02-24 21:10:00,
2013-02-24 16:15:00,28.3,24.1,29.97,West,272,10.0,24.0,84,0.00,,,0.00,Wunderground v.1.15,2013-02-24 21:15:00,
2013-02-24 16:20:00,28.3,24.1,29.97,WSW,248,10.0,24.0,84,0.00,,,0.00,Wunderground v.1.15,2013-02-24 21:20:00,
2013-02-24 16:25:00,28.3,24.1,29.97,SW,230,10.0,24.0,84,0.00,,,0.00,Wunderground v.1.15,2013-02-24 21:25:00,
2013-02-24 16:30:00,28.3,24.1,29.97,West,263,11.0,24.0,84,0.00,,,0.00,Wunderground v.1.15,2013-02-24 21:30:00,
2013-02-24 16:40:00,28.5,24.0,29.97,West,265,9.0,24.0,83,0.00,,,0.00,Wunderground v.1.15,2013-02-24 21:40:00,
2013-02-24 16:45:00,28.6,24.1,29.97,WSW,253,9.0,24.0,83,0.00,,,0.00,Wunderground v.1.15,2013-02-24 21:45:00,
2013-02-24 16:50:00,28.7,23.9,29.97,WSW,247,10.0,24.0,82,0.00,,,0.00,Wunderground v.1.15,2013-02-24 21:50:00,
2013-02-24 16:55:00,28.7,23.9,29.98,WSW,254,10.0,24.0,82,0.00,,,0.00,Wunderground v.1.15,2013-02-24 21:55:00,
2013-02-24 17:00:00,28.6,23.8,29.98,WSW,254,11.0,24.0,82,0.00,,,0.00,Wunderground v.1.15,2013-02-24 22:00:00,
2013-02-24 17:05:00,28.5,23.7,29.98,WSW,252,12.0,24.0,82,0.00,,,0.00,Wunderground v.1.15,2013-02-24 22:05:00,
2013-02-24 17:15:00,28.5,23.7,29.98,WSW,257,11.0,24.0,82,0.00,,,0.00,Wunderground v.1.15,2013-02-24 22:15:00,
2013-02-24 17:20:00,28.4,23.9,29.99,WSW,248,11.0,11.0,83,0.00,,,0.00,Wunderground v.1.15,2013-02-24 22:20:00,
2013-02-24 17:25:00,28.4,23.9,29.99,West,275,10.0,24.0,83,0.00,,,0.00,Wunderground v.1.15,2013-02-24 22:25:00,
2013-02-24 17:30:00,28.4,23.6,29.99,West,269,10.0,10.0,82,0.00,,,0.00,Wunderground v.1.15,2013-02-24 22:30:00,
2013-02-24 17:35:00,28.4,23.9,29.99,WSW,256,11.0,11.0,83,0.00,,,0.00,Wunderground v.1.15,2013-02-24 22:35:00,
2013-02-24 17:40:00,28.4,23.9,29.99,West,273,10.0,24.0,83,0.00,,,0.00,Wunderground v.1.15,2013-02-24 22:40:00,
2013-02-24 17:50:00,28.4,24.2,29.99,WSW,258,12.0,24.0,84,0.00,,,0.00,Wunderground v.1.15,2013-02-24 22:50:00,
2013-02-24 18:00:00,28.5,24.3,30.00,WSW,251,10.0,24.0,84,0.00,,,0.00,Wunderground v.1.15,2013-02-24 23:00:00,
2013-02-24 18:05:00,28.5,24.3,30.00,West,269,11.0,24.0,84,0.00,,,0.00,Wunderground v.1.15,2013-02-24 23:05:00,
2013-02-24 18:10:00,28.5,24.6,30.01,West,263,10.0,24.0,85,0.00,,,0.00,Wunderground v.1.15,2013-02-24 23:10:00,
2013-02-24 18:15:00,28.5,24.6,30.01,WSW,255,9.0,24.0,85,0.00,,,0.00,Wunderground v.1.15,2013-02-24 23:15:00,
2013-02-24 18:20:00,28.4,24.7,30.01,WSW,252,10.0,10.0,86,0.00,,,0.00,Wunderground v.1.15,2013-02-24 23:20:00,
2013-02-24 18:25:00,28.4,24.7,30.01,West,259,11.0,11.0,86,0.00,,,0.00,Wunderground v.1.15,2013-02-24 23:25:00,
2013-02-24 18:35:00,28.4,24.7,30.02,West,279,11.0,24.0,86,0.00,,,0.00,Wunderground v.1.15,2013-02-24 23:35:00,
2013-02-24 18:40:00,28.4,24.7,30.02,West,262,11.0,11.0,86,0.00,,,0.00,Wunderground v.1.15,2013-02-24 23:40:00,
2013-02-24 18:45:00,28.5,24.8,30.03,West,269,10.0,24.0,86,0.00,,,0.00,Wunderground v.1.15,2013-02-24 23:45:00,
2013-02-24 18:50:00,28.5,24.8,30.03,WSW,254,10.0,10.0,86,0.00,,,0.00,Wunderground v.1.15,2013-02-24 23:50:00,
2013-02-24 18:55:00,28.5,24.8,30.03,WSW,250,10.0,15.0,86,0.00,,,0.00,Wunderground v.1.15,2013-02-24 23:55:00,
2013-02-24 19:00:00,28.6,24.9,30.03,WSW,252,11.0,24.0,86,0.00,,,0.00,Wunderground v.1.15,2013-02-25 00:00:00,
2013-02-24 19:05:00,28.6,24.7,30.03,West,263,11.0,24.0,85,0.00,,,0.00,Wunderground v.1.15,2013-02-25 00:05:00,
2013-02-24 19:15:00,28.7,24.8,30.03,West,273,10.0,24.0,85,0.00,,,0.00,Wunderground v.1.15,2013-02-25 00:15:00,
2013-02-24 19:20:00,28.7,24.8,30.03,WSW,242,10.0,24.0,85,0.00,,,0.00,Wunderground v.1.15,2013-02-25 00:20:00,
2013-02-24 19:25:00,28.7,24.8,30.04,WNW,288,11.0,24.0,85,0.00,,,0.00,Wunderground v.1.15,2013-02-25 00:25:00,
2013-02-24 19:30:00,28.7,24.8,30.04,West,263,10.0,10.0,85,0.00,,,0.00,Wunderground v.1.15,2013-02-25 00:30:00,
2013-02-24 19:35:00,28.8,24.9,30.04,West,266,10.0,24.0,85,0.00,,,0.00,Wunderground v.1.15,2013-02-25 00:35:00,
2013-02-24 19:40:00,28.8,24.9,30.04,West,271,9.0,24.0,85,0.00,,,0.00,Wunderground v.1.15,2013-02-25 00:40:00,
2013-02-24 19:50:00,28.8,24.6,30.04,SW,235,10.0,10.0,84,0.00,,,0.00,Wunderground v.1.15,2013-02-25 00:50:00,
2013-02-24 19:55:00,28.8,24.6,30.04,WSW,250,11.0,11.0,84,0.00,,,0.00,Wunderground v.1.15,2013-02-25 00:55:00,
2013-02-24 20:00:00,28.8,24.6,30.05,WSW,248,11.0,24.0,84,0.00,,,0.00,Wunderground v.1.15,2013-02-25 01:00:00,
2013-02-24 20:05:00,28.8,24.6,30.05,WSW,251,11.0,24.0,84,0.00,,,0.00,Wunderground v.1.15,2013-02-25 01:05:00,
2013-02-24 20:10:00,28.7,24.5,30.06,West,261,11.0,24.0,84,0.00,,,0.00,Wunderground v.1.15,2013-02-25 01:10:00,
2013-02-24 20:15:00,28.7,24.5,30.06,West,264,10.0,24.0,84,0.00,,,0.00,Wunderground v.1.15,2013-02-25 01:15:00,
2013-02-24 20:25:00,28.5,24.3,30.06,WSW,248,10.0,24.0,84,0.00,,,0.00,Wunderground v.1.15,2013-02-25 01:25:00,
2013-02-24 20:30:00,28.4,24.2,30.06,WSW,250,8.0,24.0,84,0.00,,,0.00,Wunderground v.1.15,2013-02-25 01:30:00,
2013-02-24 20:35:00,28.4,24.2,30.06,West,265,8.0,24.0,84,0.00,,,0.00,Wunderground v.1.15,2013-02-25 01:35:00,
2013-02-24 20:40:00,28.4,24.2,30.07,West,259,8.0,24.0,84,0.00,,,0.00,Wunderground v.1.15,2013-02-25 01:40:00,
2013-02-24 20:45:00,28.6,24.4,30.07,WSW,250,8.0,24.0,84,0.00,,,0.00,Wunderground v.1.15,2013-02-25 01:45:00,
2013-02-24 20:50:00,28.7,24.5,30.07,WSW,256,9.0,24.0,84,0.00,,,0.00,Wunderground v.1.15,2013-02-25 01:50:00,
2013-02-24 20:55:00,28.8,24.6,30.07,West,275,10.0,24.0,84,0.00,,,0.00,Wunderground v.1.15,2013-02-25 01:55:00,
2013-02-24 21:05:00,28.8,24.6,30.07,WSW,257,9.0,24.0,84,0.00,,,0.00,Wunderground v.1.15,2013-02-25 02:05:00,
2013-02-24 21:10:00,28.9,24.7,30.07,West,265,10.0,24.0,84,0.00,,,0.00,Wunderground v.1.15,2013-02-25 02:10:00,
2013-02-24 21:15:00,28.9,24.7,30.07,West,273,10.0,24.0,84,0.00,,,0.00,Wunderground v.1.15,2013-02-25 02:15:00,
2013-02-24 21:20:00,28.8,24.6,30.07,West,261,9.0,9.0,84,0.00,,,0.00,Wunderground v.1.15,2013-02-25 02:20:00,
2013-02-24 21:25:00,28.8,24.6,30.07,WSW,244,9.0,12.0,84,0.00,,,0.00,Wunderground v.1.15,2013-02-25 02:25:00,
2013-02-24 21:30:00,28.8,24.6,30.07,West,281,10.0,24.0,84,0.00,,,0.00,Wunderground v.1.15,2013-02-25 02:30:00,
2013-02-24 21:40:00,28.7,24.5,30.08,West,261,10.0,10.0,84,0.00,,,0.00,Wunderground v.1.15,2013-02-25 02:40:00,
2013-02-24 21:45:00,28.7,24.5,30.07,West,263,9.0,12.0,84,0.00,,,0.00,Wunderground v.1.15,2013-02-25 02:45:00,
2013-02-24 21:50:00,28.7,24.5,30.07,WSW,250,9.0,9.0,84,0.00,,,0.00,Wunderground v.1.15,2013-02-25 02:50:00,
2013-02-24 21:55:00,28.7,24.5,30.07,West,265,10.0,10.0,84,0.00,,,0.00,Wunderground v.1.15,2013-02-25 02:55:00,
2013-02-24 22:00:00,28.7,24.5,30.07,West,272,10.0,24.0,84,0.00,,,0.00,Wunderground v.1.15,2013-02-25 03:00:00,
2013-02-24 22:05:00,28.7,24.5,30.07,WSW,252,10.0,24.0,84,0.00,,,0.00,Wunderground v.1.15,2013-02-25 03:05:00,
2013-02-24 22:10:00,28.6,24.4,30.07,WSW,256,9.0,24.0,84,0.00,,,0.00,Wunderground v.1.15,2013-02-25 03:10:00,
2013-02-24 22:20:00,28.6,24.4,30.07,WSW,253,10.0,24.0,84,0.00,,,0.00,Wunderground v.1.15,2013-02-25 03:20:00,
2013-02-24 22:25:00,28.6,24.4,30.07,West,259,11.0,24.0,84,0.00,,,0.00,Wunderground v.1.15,2013-02-25 03:25:00,
2013-02-24 22:30:00,28.5,24.3,30.07,WSW,248,10.0,10.0,84,0.00,,,0.00,Wunderground v.1.15,2013-02-25 03:30:00,
2013-02-24 22:35:00,28.5,24.3,30.07,West,273,9.0,24.0,84,0.00,,,0.00,Wunderground v.1.15,2013-02-25 03:35:00,
2013-02-24 22:40:00,28.5,24.3,30.07,West,263,10.0,24.0,84,0.00,,,0.00,Wunderground v.1.15,2013-02-25 03:40:00,
2013-02-24 22:45:00,28.5,24.3,30.07,West,275,10.0,24.0,84,0.00,,,0.00,Wunderground v.1.15,2013-02-25 03:45:00,
2013-02-24 22:50:00,28.5,24.3,30.07,West,263,10.0,10.0,84,0.00,,,0.00,Wunderground v.1.15,2013-02-25 03:50:00,
2013-02-24 23:00:00,28.5,24.3,30.07,West,267,9.0,9.0,84,0.00,,,0.00,Wunderground v.1.15,2013-02-25 04:00:00,
2013-02-24 23:05:00,28.4,24.2,30.07,West,261,8.0,24.0,84,0.00,,,0.00,Wunderground v.1.15,2013-02-25 04:05:00,
2013-02-24 23:10:00,28.4,24.2,30.07,West,273,8.0,24.0,84,0.00,,,0.00,Wunderground v.1.15,2013-02-25 04:10:00,
2013-02-24 23:15:00,28.4,24.2,30.07,WSW,244,8.0,24.0,84,0.00,,,0.00,Wunderground v.1.15,2013-02-25 04:15:00,
2013-02-24 23:20:00,28.4,24.2,30.07,WSW,257,10.0,10.0,84,0.00,,,0.00,Wunderground v.1.15,2013-02-25 04:20:00,
2013-02-24 23:25:00,28.4,24.2,30.07,West,263,10.0,24.0,84,0.00,,,0.00,Wunderground v.1.15,2013-02-25 04:25:00,
2013-02-24 23:35:00,28.4,24.2,30.08,West,269,9.0,10.0,84,0.00,,,0.00,Wunderground v.1.15,2013-02-25 04:35:00,
2013-02-24 23:40:00,28.3,24.4,30.08,West,262,5.0,24.0,85,0.00,,,0.00,Wunderground v.1.15,2013-02-25 04:40:00,
2013-02-24 23:45:00,28.4,24.2,30.08,West,265,7.0,24.0,84,0.00,,,0.00,Wunderground v.1.15,2013-02-25 04:45:00,
2013-02-24 23:50:00,28.4,24.2,30.08,West,267,8.0,8.0,84,0.00,,,0.00,Wunderground v.1.15,2013-02-25 04:50:00,
2013-02-24 23:55:00,28.3,24.1,30.08,West,274,7.0,24.0,84,0.00,,,0.00,Wunderground v.1.15,2013-02-25 04:55:00,